DELTA 1 DEB, 25997

Orbit data source: Space-Track

DELTA 1 DEB, 25997 is space debris in SSO originally from a launch on Thu, 12 Jun 1975 UTC launched from the Air Force Western Test Range (AFWTR). Debris objects in space refer to the collection of defunct objects orbiting the Earth. Examples of debris include non-operational satellites, rocket bodies, and fragments generated from explosions, collisions, or faulty payload assembly.

Loading next visibility...
Identifier
25997, 1975-052BA
Orbit
SSO
Country
Flag of USUS
Related business
Manufacturer
Unknown
Mission
Spacecraft
Bus & Motor
Unknown
Mass
Unknown
Launch date (UTC)
1975-06-12 (51 years ago)
Launch vehicle
Unknown
Launch site
Air Force Western Test Range (AFWTR)
Object type
Payload
Rocket body
Debris
Shape & HBR
Unknown shape, 0.1 m
Radar Cross Section
Medium (>0.1 m² and <1 m²)

Expand to show TLE details & history
Last TLE update: 2 days ago

TLE from 2 days ago
0 DELTA 1 DEB
1 25997U 75052BA  26171.39713089  .00004643  00000-0  13429-2 0  9996
2 25997  99.9928 156.6988 0118565   6.9242 353.3546 14.41100159671865
Epoch: 2026-06-20T09:31Z
TLE epoch observation values (Epoch: 2026-06-20T09:31:52.108Z)
Latitude
-0.00006°
Longitude
105.11935°
Altitude
673.758 km
Speed
7.564 km/s
True Right ascension
10h 26m 47s
True Declination
0° 00' 00"
Sunlit
Object was in daylight at epoch
Visualization orbit readout
Latitude
Unknown
Longitude
Unknown
Altitude
Unknown
Speed
Unknown
Apparent Right ascension
Unknown
Apparent Declination
Unknown
Sunlit
N/A
Visualization observer readout
Local Sidereal Time
23:27:19
Azimuth
Unknown
Elevation
Unknown
Doppler factor
Unknown
Orbital elements
Apogee altitude
836.601 km
Perigee altitude
667.523 km
Semi-major axis
7,130.199 km
Eccentricity
0.01186
Inclination
99.9928°
RAAN
156.6988°
Arg. of periapsis
6.9242°
True anomaly
353.19502°
Mean anomaly
353.3546°
Eccentric anomaly
353.27505°
Mean motion
3.60488 °/min
Orbital period
99.86 mins
BSTAR
0.0013429
Loading maneuver chart data...
Computing Atmospheric mass density...
Loading historical data...
Loading historical data...
Loading historical data...
Loading historical data...
Loading historical data...
Loading historical data...
Loading historical data...

Documentation

Showing up to 5 results
|